Voltar ao catálogo

STARLINK-35710

AtivoComunicaçõesVLEO
NORAD 66212·PAYLOAD·🇺🇸 United States

Lançado Oct 28, 2025 de Vandenberg Space Force Base

Loading…

Próximas Passagens (próximas 24 horas)

TLE

AtualizadoSource: CelesTrak SupGP

Época: Sep 15, 2026, 04:10 UTC

1 66212C 25244G   26258.17409722 -.00020444  00000+0 -60417-3 0  2583
2 66212  53.1584  68.7971 0001166  92.5410 292.7377 15.34393443    15

Acompanhe STARLINK-35710 em tempo real com AllMySat

Download on the App Store